When you browse on this site, cookies collect data to enhance your experience and personalize the content and advertising you see.
Visit our Privacy Policy to learn more. By continuing to use the site, you agree to this use of cookies and data.
  • In Schweiz
  • Länderverzeichnis
  • Für 7 Tage
  • Wassertemperatur
  • Wetterkarte
  • Widgets
  • user-avatar
    Anmelden

    Stündliche Wetter Уэйкфилд

    Heute, 23 September, Montag

    Zeit Temperatur Niederschläge Wind Luftdruck Luftfeuchtigkeit
    00:00 +15°C° 0 mm 2 m/S 747 mmHg 89%
    01:00 +15°C° 0 mm 2 m/S 747 mmHg 89%
    02:00 +14°C° 0 mm 2 m/S 747 mmHg 90%
    03:00 +14°C° 0 mm 2 m/S 747 mmHg 91%
    04:00 +14°C° 0 mm 2 m/S 747 mmHg 91%
    05:00 +14°C° 0 mm 2 m/S 748 mmHg 91%
    06:00 +13°C° 0 mm 2 m/S 748 mmHg 91%
    07:00 +14°C° 0 mm 2 m/S 748 mmHg 85%
    08:00 +14°C° 0 mm 3 m/S 749 mmHg 79%
    09:00 +15°C° 0 mm 4 m/S 749 mmHg 73%
    10:00 +17°C° 0 mm 4 m/S 749 mmHg 67%
    11:00 +18°C° 0 mm 4 m/S 749 mmHg 61%
    12:00 +19°C° 0 mm 5 m/S 750 mmHg 56%
    13:00 +19°C° 0 mm 5 m/S 749 mmHg 56%
    14:00 +19°C° 0 mm 5 m/S 749 mmHg 57%
    15:00 +19°C° 0 mm 5 m/S 749 mmHg 57%
    16:00 +17°C° 0.1 mm 5 m/S 749 mmHg 63%
    17:00 +17°C° 0.1 mm 5 m/S 748 mmHg 69%
    18:00 +17°C° 0.1 mm 4 m/S 748 mmHg 75%
    19:00 +16°C° 0.1 mm 5 m/S 748 mmHg 77%
    20:00 +15°C° 0.1 mm 5 m/S 748 mmHg 80%
    21:00 +15°C° 0.1 mm 5 m/S 748 mmHg 82%
    22:00 +15°C° 0 mm 5 m/S 747 mmHg 84%
    23:00 +15°C° 0 mm 4 m/S 747 mmHg 85%

    Morgen, 24 September, Dienstag

    Zeit Temperatur Niederschläge Wind Luftdruck Luftfeuchtigkeit
    00:00 +15°C° 0 mm 4 m/S 747 mmHg 86%
    01:00 +15°C° 0.1 mm 4 m/S 746 mmHg 87%
    02:00 +17°C° 0.1 mm 3 m/S 746 mmHg 88%
    03:00 +17°C° 0.1 mm 3 m/S 745 mmHg 89%
    04:00 +17°C° 0 mm 3 m/S 745 mmHg 90%
    05:00 +17°C° 0 mm 3 m/S 744 mmHg 90%
    06:00 +17°C° 0 mm 3 m/S 744 mmHg 90%
    07:00 +17°C° 0.6 mm 3 m/S 743 mmHg 90%
    08:00 +17°C° 0.6 mm 3 m/S 743 mmHg 89%
    09:00 +18°C° 0.6 mm 4 m/S 742 mmHg 89%
    10:00 +17°C° 2.2 mm 3 m/S 742 mmHg 89%
    11:00 +17°C° 2.2 mm 3 m/S 741 mmHg 90%
    12:00 +17°C° 2.2 mm 3 m/S 741 mmHg 91%
    13:00 +15°C° 1.3 mm 4 m/S 741 mmHg 89%
    14:00 +15°C° 1.3 mm 5 m/S 741 mmHg 87%
    15:00 +15°C° 1.3 mm 5 m/S 741 mmHg 85%
    16:00 +15°C° 0.1 mm 5 m/S 741 mmHg 83%
    17:00 +15°C° 0.1 mm 4 m/S 741 mmHg 82%
    18:00 +16°C° 0.1 mm 3 m/S 741 mmHg 80%
    19:00 +14°C° 0 mm 3 m/S 741 mmHg 82%
    20:00 +14°C° 0 mm 3 m/S 742 mmHg 83%
    21:00 +13°C° 0 mm 3 m/S 742 mmHg 84%
    22:00 +13°C° 0 mm 3 m/S 742 mmHg 85%
    23:00 +13°C° 0 mm 3 m/S 741 mmHg 86%

    übermorgen, 25 September, Mittwoch

    Zeit Temperatur Niederschläge Wind Luftdruck Luftfeuchtigkeit
    00:00 +13°C° 0 mm 3 m/S 741 mmHg 87%
    01:00 +13°C° 0.1 mm 3 m/S 741 mmHg 88%
    02:00 +13°C° 0.1 mm 3 m/S 741 mmHg 89%
    03:00 +13°C° 0.1 mm 3 m/S 741 mmHg 90%
    04:00 +14°C° 0.1 mm 2 m/S 741 mmHg 91%
    05:00 +14°C° 0.1 mm 2 m/S 741 mmHg 91%
    06:00 +14°C° 0.1 mm 2 m/S 740 mmHg 91%
    07:00 +14°C° 0 mm 1 m/S 741 mmHg 88%
    08:00 +15°C° 0 mm 1 m/S 741 mmHg 85%
    09:00 +16°C° 0 mm 1 m/S 742 mmHg 82%
    10:00 +18°C° 0 mm 1 m/S 742 mmHg 78%
    11:00 +17°C° 0 mm 0 m/S 742 mmHg 73%
    12:00 +17°C° 0 mm 0 m/S 742 mmHg 69%
    13:00 +19°C° 0 mm 1 m/S 742 mmHg 68%
    14:00 +20°C° 0 mm 1 m/S 742 mmHg 66%
    15:00 +20°C° 0 mm 1 m/S 743 mmHg 65%
    16:00 +19°C° 0 mm 1 m/S 743 mmHg 70%
    17:00 +18°C° 0 mm 1 m/S 743 mmHg 74%
    18:00 +16°C° 0 mm 2 m/S 743 mmHg 79%
    19:00 +16°C° 0 mm 2 m/S 743 mmHg 81%
    20:00 +15°C° 0 mm 2 m/S 743 mmHg 84%
    21:00 +15°C° 0 mm 2 m/S 743 mmHg 86%
    22:00 +15°C° 1 mm 2 m/S 742 mmHg 88%
    23:00 +14°C° 1 mm 3 m/S 742 mmHg 90%

    26 September, Donnerstag

    Zeit Temperatur Niederschläge Wind Luftdruck Luftfeuchtigkeit
    00:00 +14°C° 1 mm 4 m/S 741 mmHg 92%
    01:00 +15°C° 1.2 mm 4 m/S 741 mmHg 90%
    02:00 +15°C° 1.2 mm 5 m/S 741 mmHg 89%
    03:00 +16°C° 1.2 mm 5 m/S 741 mmHg 87%
    04:00 +15°C° 0 mm 5 m/S 741 mmHg 88%
    05:00 +15°C° 0 mm 4 m/S 740 mmHg 89%
    06:00 +14°C° 0 mm 4 m/S 740 mmHg 90%
    07:00 +15°C° 0.1 mm 5 m/S 741 mmHg 83%
    08:00 +15°C° 0.1 mm 6 m/S 741 mmHg 77%
    09:00 +15°C° 0.1 mm 7 m/S 742 mmHg 71%
    10:00 +16°C° 0 mm 7 m/S 742 mmHg 67%
    11:00 +16°C° 0 mm 6 m/S 742 mmHg 63%
    12:00 +17°C° 0 mm 6 m/S 743 mmHg 59%
    13:00 +17°C° 0.1 mm 6 m/S 742 mmHg 61%
    14:00 +17°C° 0.1 mm 6 m/S 742 mmHg 62%
    15:00 +16°C° 0.1 mm 6 m/S 742 mmHg 64%
    16:00 +16°C° 0.1 mm 6 m/S 742 mmHg 67%
    17:00 +15°C° 0.1 mm 6 m/S 742 mmHg 71%
    18:00 +15°C° 0.1 mm 6 m/S 742 mmHg 74%
    19:00 +14°C° 0.1 mm 6 m/S 743 mmHg 75%
    20:00 +14°C° 0.1 mm 6 m/S 743 mmHg 76%
    21:00 +13°C° 0.1 mm 6 m/S 743 mmHg 77%
    22:00 +13°C° 0 mm 5 m/S 743 mmHg 78%
    23:00 +13°C° 0 mm 5 m/S 743 mmHg 79%

    27 September, Freitag

    Zeit Temperatur Niederschläge Wind Luftdruck Luftfeuchtigkeit
    00:00 +12°C° 0 mm 5 m/S 744 mmHg 80%
    01:00 +12°C° 0 mm 5 m/S 743 mmHg 81%
    02:00 +12°C° 0 mm 4 m/S 743 mmHg 82%
    03:00 +12°C° 0 mm 4 m/S 743 mmHg 82%
    04:00 +12°C° 0 mm 4 m/S 743 mmHg 83%
    05:00 +12°C° 0 mm 4 m/S 743 mmHg 83%
    06:00 +12°C° 0 mm 4 m/S 743 mmHg 84%
    07:00 +12°C° 0 mm 5 m/S 743 mmHg 81%
    08:00 +13°C° 0 mm 5 m/S 743 mmHg 77%
    09:00 +14°C° 0 mm 6 m/S 743 mmHg 74%
    10:00 +14°C° 0.1 mm 6 m/S 742 mmHg 72%
    11:00 +15°C° 0.1 mm 7 m/S 742 mmHg 70%
    12:00 +15°C° 0.1 mm 7 m/S 742 mmHg 68%
    13:00 +15°C° 0.5 mm 7 m/S 741 mmHg 70%
    14:00 +14°C° 0.5 mm 7 m/S 741 mmHg 72%
    15:00 +13°C° 0.5 mm 8 m/S 741 mmHg 75%
    16:00 +14°C° 0.3 mm 7 m/S 741 mmHg 76%
    17:00 +13°C° 0.3 mm 6 m/S 741 mmHg 77%
    18:00 +13°C° 0.3 mm 5 m/S 741 mmHg 79%
    19:00 +12°C° 0.3 mm 5 m/S 741 mmHg 80%
    20:00 +12°C° 0.3 mm 5 m/S 741 mmHg 81%
    21:00 +11°C° 0.3 mm 4 m/S 742 mmHg 81%
    22:00 +11°C° 0 mm 4 m/S 742 mmHg 81%
    23:00 +10°C° 0 mm 5 m/S 742 mmHg 81%

    28 September, Samstag

    Zeit Temperatur Niederschläge Wind Luftdruck Luftfeuchtigkeit
    00:00 +10°C° 0 mm 5 m/S 742 mmHg 82%
    01:00 +10°C° 0 mm 5 m/S 742 mmHg 81%
    02:00 +10°C° 0 mm 5 m/S 742 mmHg 81%
    03:00 +10°C° 0 mm 6 m/S 742 mmHg 81%
    04:00 +10°C° 0 mm 5 m/S 743 mmHg 81%
    05:00 +10°C° 0 mm 5 m/S 743 mmHg 81%
    06:00 +10°C° 0 mm 5 m/S 743 mmHg 81%
    07:00 +10°C° 0 mm 6 m/S 743 mmHg 79%
    08:00 +11°C° 0 mm 6 m/S 744 mmHg 77%
    09:00 +11°C° 0 mm 7 m/S 744 mmHg 74%
    10:00 +12°C° 0 mm 7 m/S 744 mmHg 71%
    11:00 +14°C° 0 mm 7 m/S 744 mmHg 68%
    12:00 +14°C° 0 mm 7 m/S 745 mmHg 64%
    13:00 +14°C° 0 mm 7 m/S 745 mmHg 64%
    14:00 +15°C° 0 mm 7 m/S 745 mmHg 63%
    15:00 +15°C° 0 mm 7 m/S 745 mmHg 62%
    16:00 +14°C° 0 mm 6 m/S 745 mmHg 67%
    17:00 +13°C° 0 mm 5 m/S 745 mmHg 71%
    18:00 +12°C° 0 mm 5 m/S 745 mmHg 75%
    19:00 +11°C° 0 mm 4 m/S 746 mmHg 77%
    20:00 +11°C° 0 mm 4 m/S 746 mmHg 79%
    21:00 +11°C° 0 mm 4 m/S 746 mmHg 81%
    22:00 +11°C° 0 mm 4 m/S 746 mmHg 82%
    23:00 +11°C° 0 mm 3 m/S 746 mmHg 84%
    Mehr zeigen